Location: Baia de Cri?
(46.1667°N, 22.7167°E)
Time: 09:29:46
(UTC+00:00)

Lacrosse 5 rocket - Pass Details

Date: 15 January 2026
Orbit: 402 x 482 km, 57.0° (Epoch: 10 February)

Event Time Altitude Azimuth Distance (km) Brightness Sun altitude
Exits shadow 04:07:06 16° 1° (N) 1,340 3.2 -20.4°
Drops below altitude 10° 04:09:12 10° 35° (NE) 1,684 4.1 -20.0°
Sets 04:12:01 0° 57° (ENE) 2,566 5.4 -19.5°
